Location: Cotdoussan
(43.0366°N, 0.0068°E)
Time: 15:04:01
(UTC+00:00)

Cosmos 2219 Rocket - Pass Details

Date: 08 August 2025
Orbit: 827 x 844 km, 71.0° (Epoch: 20 April)

Event Time Altitude Azimuth Distance (km) Brightness Sun altitude
Exits shadow 21:53:15 44° 92° (E) 1,130 2.5 -23.7°
Drops below altitude 10° 21:58:03 10° 36° (NE) 2,438 4.8 -24.2°
Enters shadow 23:07:24 -48° 212° (SSW) 10,542 7.8 -29.6°
